Regional Weather Roundup
Issued by NWS Sioux Falls, SD

Home | Current Version | Previous Version | Graphics & Text | Print | Product List | Glossary Off
Versions: 1 2 3 4 5 6 7 8 9 10 11 12 13 14 15 16 17 18 19 20 21 22 23 24 25 26 27 28 29 30 31 32 33 34 35 36 37 38 39 40 41 42 43 44 45 46 47 48 49 50

000
ASUS43 KFSD 041402
RWRFSD

WEATHER ROUNDUP FOR SE SOUTH DAKOTA/SW MINNESOTA/NW IOWA
NATIONAL WEATHER SERVICE SIOUX FALLS SD
900 AM CDT MON MAY 04 2015

NOTE: "FAIR" INDICATES FEW OR NO CLOUDS BELOW 12,000 FEET WITH NO
SIGNIFICANT WEATHER AND OR OBSTRUCTIONS TO VISIBILITY.


SDZ038>040-050-052>070-041500-
SOUTHEAST SOUTH DAKOTA

CITY           SKY/WX    TMP DP  RH WIND       PRES   REMARKS
BROOKINGS      SUNNY     57  30  35 E12       30.17S
CHAMBERLAIN    NOT AVBL
HURON          MOSUNNY   51  32  48 NW5       30.19R
MADISON        FAIR      55  28  35 NE13      30.17R
MITCHELL       MOSUNNY   58  36  43 NE8       30.18R
SIOUX FALLS    PTSUNNY   56  32  40 NE12      30.14S
WINNER         FAIR      52  27  38 E5        30.19R
YANKTON        PTSUNNY   59  28  31 NE12      30.14R
$$

MNZ071-072-080-081-089-090-097-098-041500-
SOUTHWEST MINNESOTA

CITY           SKY/WX    TMP DP  RH WIND       PRES   REMARKS
FAIRMONT       MOSUNNY   61  34  36 NE17      30.12R
JACKSON        MOSUNNY   59  30  33 NE18G24   30.14R
LUVERNE        MOSUNNY   59  30  33 NE13G18   30.15R
MARSHALL       MOSUNNY   55  30  38 E7        30.17R
MONTEVIDEO     MOSUNNY   57  36  44 E9        30.18R
REDWOOD FALLS  SUNNY     60  32  34 NE8       30.16R
TRACY          SUNNY     55  32  42 N5        30.17R
WORTHINGTON    MOSUNNY   55  32  41 NE17      30.16R
$$

IAZ001>003-012>014-020>022-031-032-NEZ013-014-SDZ071-041500-
NORTHWEST IOWA

CITY           SKY/WX    TMP DP  RH WIND       PRES   REMARKS
DENISON        CLOUDY    57  46  67 NE10G16   30.07R
ESTHERVILLE    MOSUNNY   58  36  43 NE22      30.13R
SIOUX CITY     CLOUDY    60  37  42 NE7       30.11R
SPENCER        PTSUNNY   58  38  47 NE18      30.12R
$$

ABBREVIATIONS USED IN REMARKS
   TC - TEMPERATURE IN CELSIUS
  WCI - WIND CHILL INDEX
   HX - HEAT INDEX
  VSB - VISIBILITY




USA.gov is the U.S. government's official web portal to all federal, state and local government web resources and services.